GEC755 EDDF-HECA

Flight info

Callsign GEC755
Flight time N/A
Altitude 33000
Route CINDY8S/18 CINDY Z74 LAMPU DCT NOMBO Y161 MAH DCT VAVOR DCT RADIZ DCT GORPA DCT EVTON DCT SOLGU DCT AKIKA DCT MAVAR DCT BITLA DCT KPC UN139 KUMBI L612 BLT A16 CVO
Aircraft B77L/H-SDE1E2E3FGHIJ2J3J4J5M1RWXY/LB1D1

Departure

Time 2026-05-06 16:38
Airport Frankfurt Main Airport (EDDF)

Arrival

Time N/A
Airport Cairo International Airport (HECA)
Time Latitude Longitude Altitude Speed Heading
2026-05-06 16:02 50.04003 8.54545 353 ft 0 kts 249°
2026-05-06 16:12 50.04003 8.54546 353 ft 0 kts 249°
2026-05-06 16:21 50.04004 8.54549 353 ft 2 kts 249°
2026-05-06 16:22 50.04013 8.54587 361 ft 3 kts 247°
2026-05-06 16:22 50.04027 8.54621 363 ft 3 kts 219°
2026-05-06 16:22 50.04050 8.54640 363 ft 3 kts 186°
2026-05-06 16:22 50.04069 8.54637 363 ft 1 kts 160°
2026-05-06 16:23 50.04072 8.54636 362 ft 2 kts 160°
2026-05-06 16:23 50.04072 8.54635 354 ft 0 kts 160°
2026-05-06 16:24 50.04073 8.54635 354 ft 0 kts 160°
2026-05-06 16:26 50.04068 8.54638 363 ft 3 kts 160°
2026-05-06 16:26 50.04045 8.54651 361 ft 4 kts 160°
2026-05-06 16:27 50.04022 8.54664 358 ft 4 kts 160°
2026-05-06 16:27 50.03999 8.54677 359 ft 4 kts 160°
2026-05-06 16:27 50.03972 8.54682 359 ft 5 kts 181°
2026-05-06 16:27 50.03938 8.54657 363 ft 7 kts 221°
2026-05-06 16:28 50.03911 8.54570 358 ft 10 kts 250°
2026-05-06 16:28 50.03888 8.54472 358 ft 10 kts 250°
2026-05-06 16:28 50.03860 8.54377 360 ft 10 kts 239°
2026-05-06 16:28 50.03822 8.54291 356 ft 10 kts 236°
2026-05-06 16:29 50.03794 8.54199 357 ft 10 kts 249°
2026-05-06 16:29 50.03770 8.54099 356 ft 10 kts 250°
2026-05-06 16:29 50.03747 8.54001 356 ft 10 kts 250°
2026-05-06 16:29 50.03724 8.53904 355 ft 10 kts 249°
2026-05-06 16:30 50.03700 8.53807 352 ft 10 kts 250°
2026-05-06 16:30 50.03685 8.53742 357 ft 10 kts 250°
2026-05-06 16:30 50.03652 8.53610 351 ft 10 kts 248°
2026-05-06 16:30 50.03627 8.53512 349 ft 10 kts 248°
2026-05-06 16:31 50.03603 8.53414 352 ft 10 kts 250°
2026-05-06 16:31 50.03580 8.53315 352 ft 10 kts 249°
2026-05-06 16:31 50.03556 8.53216 349 ft 10 kts 250°
2026-05-06 16:31 50.03532 8.53117 352 ft 10 kts 249°
2026-05-06 16:32 50.03509 8.53018 351 ft 10 kts 249°
2026-05-06 16:32 50.03484 8.52920 347 ft 10 kts 248°
2026-05-06 16:32 50.03458 8.52827 336 ft 9 kts 246°
2026-05-06 16:32 50.03440 8.52759 337 ft 5 kts 249°
2026-05-06 16:33 50.03437 8.52745 336 ft 0 kts 249°
2026-05-06 16:35 50.03430 8.52717 336 ft 5 kts 249°
2026-05-06 16:36 50.03418 8.52670 335 ft 5 kts 248°
2026-05-06 16:36 50.03404 8.52623 334 ft 5 kts 237°
2026-05-06 16:36 50.03376 8.52599 335 ft 4 kts 194°
2026-05-06 16:36 50.03352 8.52596 337 ft 4 kts 181°
2026-05-06 16:37 50.03211 8.52597 340 ft 45 kts 180°
2026-05-06 16:37 50.02667 8.52601 335 ft 109 kts 179°
2026-05-06 16:37 50.01727 8.52607 335 ft 160 kts 180°
2026-05-06 16:37 50.00478 8.52598 388 ft 193 kts 184°
2026-05-06 16:38 49.99104 8.52592 723 ft 203 kts 182°
2026-05-06 16:38 49.97660 8.52629 1109 ft 213 kts 177°
2026-05-06 16:38 49.96271 8.53609 1467 ft 232 kts 134°
2026-05-06 16:38 49.95397 8.55635 2206 ft 223 kts 120°
2026-05-06 16:39 49.94684 8.57757 2806 ft 224 kts 119°
2026-05-06 16:39 49.94058 8.59982 3122 ft 235 kts 104°
2026-05-06 16:39 49.93897 8.62582 3349 ft 251 kts 93°
2026-05-06 16:39 49.93836 8.65398 3652 ft 269 kts 94°
2026-05-06 16:40 49.93677 8.68295 4001 ft 271 kts 107°
2026-05-06 16:40 49.92771 8.70790 3988 ft 265 kts 143°
2026-05-06 16:40 49.91266 8.72390 4010 ft 265 kts 149°
2026-05-06 16:40 49.89718 8.74021 4011 ft 271 kts 148°
2026-05-06 16:41 49.88272 8.75851 3973 ft 269 kts 130°
2026-05-06 16:41 49.87342 8.78362 4010 ft 270 kts 119°
2026-05-06 16:41 49.86458 8.80962 4049 ft 276 kts 121°
2026-05-06 16:41 49.85520 8.83570 4719 ft 277 kts 122°
2026-05-06 16:42 49.84576 8.86173 5464 ft 278 kts 122°
2026-05-06 16:42 49.83627 8.88786 6186 ft 279 kts 122°
2026-05-06 16:42 49.82683 8.91382 6822 ft 281 kts 122°
2026-05-06 16:42 49.81719 8.94035 7490 ft 284 kts 122°
2026-05-06 16:43 49.80747 8.96707 8134 ft 287 kts 122°
2026-05-06 16:43 49.79765 8.99410 8814 ft 289 kts 121°
2026-05-06 16:43 49.78775 9.02127 9485 ft 291 kts 121°
2026-05-06 16:43 49.77774 9.04869 10077 ft 295 kts 121°
2026-05-06 16:44 49.76734 9.07710 10318 ft 314 kts 122°
2026-05-06 16:44 49.75788 9.10852 10451 ft 335 kts 109°
2026-05-06 16:44 49.75200 9.14465 10630 ft 358 kts 104°
2026-05-06 16:44 49.74608 9.18237 10863 ft 372 kts 110°
2026-05-06 16:45 49.73365 9.21752 11304 ft 376 kts 133°
2026-05-06 16:45 49.71552 9.24680 11890 ft 381 kts 136°
2026-05-06 16:45 49.69702 9.27653 12733 ft 385 kts 135°
2026-05-06 16:45 49.67894 9.30725 13591 ft 388 kts 134°
2026-05-06 16:46 49.66096 9.33868 14301 ft 393 kts 133°
2026-05-06 16:46 49.64286 9.37042 15014 ft 396 kts 133°
2026-05-06 16:46 49.62372 9.40120 15713 ft 398 kts 140°
2026-05-06 16:46 49.60248 9.42785 16425 ft 400 kts 146°
2026-05-06 16:47 49.57895 9.45101 17127 ft 403 kts 152°
2026-05-06 16:47 49.55468 9.47281 17868 ft 405 kts 152°
2026-05-06 16:47 49.53026 9.49480 18495 ft 409 kts 152°
2026-05-06 16:47 49.50561 9.51712 19088 ft 413 kts 152°